[[{"header":{"parameterUnit":"m.s-1","parameterCategory":1,"la1":30.2991,"la2":30.254,"lo1":-89.0895,"lo2":-89.0444,"dy":0.0017,"dx":0.0017,"nx":28,"ny":28,"refTime":"2025-03-14T03:00:00:Z","depth":0,"parameterNumber":2,"parameterNumberName":"U-component_of_WINDS"},"data":[0,0,0,0,0,0,0,0,0,0,0,0,0,0,0,0,0,0,0,0,0,0,0,0,0,0,0,0,0,0,0,0,0,0,0,0,0,0,0,0,0,0,0,0,0,0,0,0,0,0,0,0,0,0,0,0,0,0,-4.0913,-4.0914,0,-4.1008,-4.1009,-4.101,-4.1037,-4.1036,-4.1036,-4.1035,-4.1131,-4.1133,-4.1136,0,0,0,0,0,0,0,0,0,0,0,0,0,-4.0753,-4.0756,-4.0913,-4.0914,-4.0915,-4.1007,-4.1009,-4.101,-4.1037,-4.1036,-4.1036,-4.1035,-4.113,-4.1133,-4.1137,0,0,0,0,0,0,0,0,0,0,0,0,0,-4.0833,-4.0757,-4.0913,-4.094,-4.0943,-4.1007,-4.1009,-4.101,-4.1037,-4.1036,-4.1035,-4.1035,-4.1128,-4.1133,-4.1137,-4.118,0,0,-4.1151,-4.1153,0,0,0,0,0,0,0,0,-4.0828,-4.0839,-4.0935,-4.0938,-4.0942,-4.101,-4.0987,-4.1067,-4.1037,-4.1001,-4.1035,-4.1034,-4.1091,-4.1098,-4.1118,-4.1185,-4.1189,-4.1151,-4.1154,-4.1156,-4.1157,0,0,0,0,0,0,0,-4.0823,-4.0835,-4.095,-4.0936,-4.094,-4.0947,-4.0957,-4.1003,-4.1049,-4.1004,-4.1007,-4.1018,-4.1093,-4.1113,-4.112,-4.119,-4.1151,-4.1155,-4.1158,-4.116,-4.1297,-4.1298,0,0,0,0,0,0,-4.0813,-4.083,-4.0947,-4.0953,-4.0882,-4.095,-4.0962,-4.0989,-4.1049,-4.1057,-4.1018,-4.1018,-4.1106,-4.1115,-4.1124,-4.1177,-4.1156,-4.116,-4.1163,-4.1296,-4.1297,-4.1298,0,0,0,0,0,0,-4.0809,-4.0823,-4.0943,-4.0892,-4.0908,-4.0954,-4.0984,-4.0991,-4.1012,-4.1059,-4.1067,-4.1031,-4.1106,-4.1117,-4.1166,-4.1181,-4.1162,-4.1166,-4.1295,-4.1296,-4.1297,-4.1285,0,0,0,0,0,0,-4.0805,-4.0822,-4.0839,-4.0892,-4.0911,-4.0985,-4.0985,-4.0993,-4.102,-4.1021,-4.1073,-4.1081,-4.1106,-4.1159,-4.117,-4.1187,-4.117,-4.1294,-4.1295,-4.1297,-4.1285,-4.1286,-4.1288,0,0,0,0,0,-4.0799,-4.0832,-4.084,-4.0854,-4.0933,-4.0986,-4.0996,-4.1024,-4.1021,-4.1038,-4.1068,-4.1079,-4.1178,-4.1164,-4.1177,-4.1195,-4.1293,-4.1295,-4.1297,-4.1284,-4.1286,-4.1288,0,0,0,0,0,0,-4.0778,-4.0839,-4.0849,-4.09,-4.0937,-4.099,-4.1013,-4.1026,-4.1064,-4.1064,-4.1097,-4.1109,-4.1155,-4.118,-4.1163,-4.1239,-4.1236,-4.124,-4.1221,-4.1223,-4.1225,-4.1217,-4.1174,0,0,0,0,0,-4.078,-4.0818,-4.0869,-4.0909,-4.0927,-4.0967,-4.0991,-4.1009,-4.1049,-4.1065,-4.1099,-4.1137,-4.1176,-4.1201,-4.124,-4.1289,-4.13,-4.1308,-4.1309,-4.131,-4.1313,-4.134,-4.1344,-4.1305,-4.1305,-4.1305,0,0,-4.0783,-4.0821,-4.0843,-4.0906,-4.0937,-4.0974,-4.098,-4.102,-4.1048,-4.1071,-4.1119,-4.1145,-4.119,-4.1238,-4.1261,-4.126,-4.1327,-4.1313,-4.1313,-4.1316,-4.1342,-4.1346,-4.1349,-4.1306,-4.1306,-4.1306,0,0,-4.0808,-4.0841,-4.0878,-4.0909,-4.0956,-4.0982,-4.0991,-4.1042,-4.106,-4.1109,-4.1127,-4.1161,-4.1228,-4.1259,-4.1283,-4.132,-4.1331,-4.1332,-4.1339,-4.1364,-4.1367,-4.137,-4.1382,-4.1386,-4.1335,-4.1335,-4.1335,0,-4.0805,-4.0864,-4.0895,-4.0934,-4.096,-4.0984,-4.102,-4.1049,-4.1107,-4.1124,-4.1123,-4.1208,-4.1239,-4.1295,-4.1303,-4.1323,-4.1333,-4.1325,-4.1365,-4.1368,-4.1371,-4.1383,-4.1387,-4.1335,-4.1335,-4.1335,-4.1335,0,-4.0858,-4.0898,-4.0922,-4.0977,-4.1007,-4.1044,-4.108,-4.1106,-4.1123,-4.1148,-4.1197,-4.1236,-4.1283,-4.1298,-4.1314,-4.1356,-4.1354,-4.1358,-4.1354,-4.1374,-4.1385,-4.139,-4.1334,-4.1334,-4.1335,-4.1335,0,0,-4.0872,-4.0944,-4.0952,-4.0977,-4.1031,-4.1062,-4.1101,-4.1147,-4.1168,-4.1207,-4.1239,-4.1296,-4.13,-4.1328,-4.1348,-4.137,-4.1396,-4.1372,-4.1374,-4.1374,-4.1443,-4.1438,-4.1443,-4.1404,-4.1405,-4.1406,-4.1438,0,-4.0903,-4.0973,-4.1001,-4.1058,-4.1094,-4.1117,-4.1151,-4.1187,-4.1212,-4.1247,-4.1275,-4.1314,-4.1317,-4.1334,-4.1357,-4.1387,-4.1409,-4.1386,-4.1433,-4.1435,-4.142,-4.1449,-4.1445,-4.1474,-4.1443,-4.1444,-4.1445,0,-4.0948,-4.0987,-4.1047,-4.1096,-4.1113,-4.1142,-4.1187,-4.122,-4.1261,-4.1278,-4.1309,-4.1328,-4.1368,-4.1363,-4.1418,-4.1402,-4.1423,-4.1441,-4.1442,-4.1447,-4.144,-4.1453,-4.1484,-4.1487,-4.1452,-4.1452,-4.1451,0,-4.095,-4.1018,-4.1063,-4.1084,-4.1143,-4.1163,-4.1188,-4.1229,-4.1255,-4.1293,-4.131,-4.1353,-4.1376,-4.1409,-4.1438,-4.1432,-4.1491,-4.1488,-4.1505,-4.1504,-4.1516,-4.1514,-4.1549,-4.1531,-4.1531,-4.1531,-4.1531,0,-4.0981,-4.1016,-4.1065,-4.1092,-4.1132,-4.1165,-4.1203,-4.123,-4.1266,-4.1299,-4.1321,-4.1351,-4.1389,-4.1423,-4.1447,-4.1489,-4.1499,-4.1513,-4.1519,-4.1511,-4.1509,-4.1524,-4.1523,-4.1532,-4.1532,-4.1532,-4.1532,0,-4.099,-4.1024,-4.1074,-4.1125,-4.1139,-4.1166,-4.121,-4.1237,-4.1264,-4.1304,-4.1316,-4.1357,-4.1399,-4.1432,-4.1486,-4.1502,-4.1546,-4.1553,-4.1532,-4.1535,-4.1549,-4.1547,-4.1594,-4.1601,-4.158,-4.158,-4.158,0,-4.1007,-4.1034,-4.1089,-4.1113,-4.1138,-4.1175,-4.1202,-4.1235,-4.1262,-4.1311,-4.1332,-4.1375,-4.1411,-4.1477,-4.1511,-4.1553,-4.156,-4.1574,-4.1567,-4.1557,-4.1559,-4.1557,-4.1559,-4.1574,-4.1574,-4.1574,-4.1574,0,-4.1032,-4.1048,-4.1085,-4.1129,-4.116,-4.1196,-4.1232,-4.1249,-4.1289,-4.1318,-4.1361,-4.1389,-4.1445,-4.1487,-4.1532,-4.1558,-4.1572,-4.1577,-4.1583,-4.1574,-4.156,-4.1567,-4.1533,-4.1575,-4.1575,-4.1575,-4.1575,-4.1575,-4.1045,-4.107,-4.1113,-4.1154,-4.1185,-4.1218,-4.1245,-4.1276,-4.1312,-4.136,-4.1378,-4.1422,-4.1462,-4.1524,-4.155,-4.1585,-4.1586,-4.1595,-4.1597,-4.1598,-4.1596,-4.1556,-4.1593,-4.1593,-4.1593,-4.1593,-4.1593,0,-4.1071,-4.1099,-4.1137,-4.1187,-4.1219,-4.1231,-4.1271,-4.1297,-4.1335,-4.1372,-4.1408,-4.1457,-4.1498,-4.1536,-4.1579,-4.1599,-4.1607,-4.1609,-4.1608,-4.1613,-4.1594,-4.1584,-4.1602,-4.1602,-4.1602,-4.1602,-4.1602,-4.1602,-4.1088,-4.1131,-4.1152,-4.1211,-4.1239,-4.1282,-4.1304,-4.1335,-4.1364,-4.1418,-4.1453,-4.1477,-4.1515,-4.1561,-4.1599,-4.1609,-4.1623,-4.1623,-4.1635,-4.1616,-4.1615,-4.1613,-4.1604,-4.1627,-4.1627,-4.1652,-4.1652,-4.1652]},{"header":{"parameterUnit":"m.s-1","parameterCategory":1,"la1":30.2991,"la2":30.254,"lo1":-89.0895,"lo2":-89.0444,"dy":0.0017,"dx":0.0017,"nx":28,"ny":28,"refTime":"2025-03-14T03:00:00:Z","depth":0,"parameterNumber":3,"parameterNumberName":"V-component_of_WINDS"},"data":[0,0,0,0,0,0,0,0,0,0,0,0,0,0,0,0,0,0,0,0,0,0,0,0,0,0,0,0,0,0,0,0,0,0,0,0,0,0,0,0,0,0,0,0,0,0,0,0,0,0,0,0,0,0,0,0,0,0,7.2007,7.2009,0,7.2127,7.2129,7.213,7.2124,7.2122,7.212,7.2119,7.2236,7.2241,7.2246,0,0,0,0,0,0,0,0,0,0,0,0,0,7.1769,7.1773,7.2007,7.2009,7.201,7.2127,7.2129,7.213,7.2124,7.2122,7.212,7.2118,7.2235,7.224,7.2246,0,0,0,0,0,0,0,0,0,0,0,0,0,7.1879,7.1775,7.2007,7.2021,7.2024,7.2127,7.2129,7.2131,7.2124,7.2122,7.2119,7.2117,7.2233,7.224,7.2247,7.2342,0,0,7.2269,7.2272,0,0,0,0,0,0,0,0,7.1873,7.1888,7.2018,7.202,7.2023,7.2108,7.2088,7.2202,7.2125,7.2086,7.2119,7.2116,7.2195,7.2205,7.2233,7.2348,7.2353,7.2269,7.2274,7.2277,7.2279,0,0,0,0,0,0,0,7.1865,7.1883,7.2055,7.2019,7.2023,7.2021,7.2033,7.211,7.2153,7.2089,7.2089,7.2104,7.2196,7.2227,7.2236,7.2354,7.2269,7.2275,7.228,7.2282,7.2556,7.2559,0,0,0,0,0,0,7.1855,7.1876,7.2051,7.2058,7.194,7.2027,7.2041,7.2083,7.2153,7.2161,7.2106,7.2103,7.2216,7.2228,7.224,7.2359,7.2277,7.2283,7.2287,7.2553,7.2557,7.256,0,0,0,0,0,0,7.185,7.1871,7.2046,7.1967,7.199,7.2034,7.2081,7.2087,7.2117,7.2165,7.2173,7.2129,7.2214,7.223,7.2318,7.2363,7.2286,7.2293,7.255,7.2554,7.2558,7.2596,0,0,0,0,0,0,7.1843,7.1869,7.1906,7.1968,7.1994,7.2123,7.2084,7.2091,7.213,7.2128,7.2189,7.2196,7.2213,7.2308,7.2325,7.2371,7.2298,7.2546,7.2552,7.2557,7.2591,7.2601,7.261,0,0,0,0,0,7.1835,7.191,7.1908,7.1929,7.2041,7.2125,7.214,7.2159,7.2134,7.2172,7.2203,7.2194,7.2355,7.2317,7.2336,7.2385,7.2543,7.255,7.2557,7.2587,7.2599,7.261,0,0,0,0,0,0,7.1849,7.1918,7.1917,7.2015,7.2065,7.2124,7.2172,7.2171,7.2228,7.2223,7.2243,7.2257,7.2346,7.2374,7.233,7.2483,7.2446,7.2457,7.2462,7.2474,7.2483,7.2475,7.2304,0,0,0,0,0,7.1864,7.1928,7.1984,7.2065,7.209,7.2127,7.2164,7.2176,7.2227,7.2247,7.2285,7.2334,7.2396,7.2436,7.2495,7.2594,7.2609,7.2638,7.2648,7.2655,7.2665,7.2723,7.2737,7.2582,7.2582,7.2582,0,0,7.1895,7.1941,7.1979,7.2069,7.2109,7.2175,7.2145,7.2214,7.2263,7.2257,7.2344,7.2373,7.2429,7.2524,7.2568,7.255,7.2711,7.2664,7.267,7.2675,7.2731,7.2746,7.2759,7.2587,7.2586,7.2585,0,0,7.1985,7.2026,7.2099,7.2141,7.2203,7.2227,7.2245,7.2305,7.2326,7.2413,7.2412,7.2469,7.2574,7.2615,7.265,7.2759,7.2755,7.2778,7.2828,7.2884,7.2896,7.2907,7.2949,7.2963,7.2787,7.2787,7.2787,0,7.2016,7.2116,7.2136,7.2208,7.2249,7.2249,7.2324,7.2363,7.244,7.2467,7.2447,7.2582,7.2619,7.2726,7.2753,7.278,7.2801,7.2771,7.2893,7.2904,7.2915,7.2954,7.297,7.279,7.2789,7.2789,7.2789,0,7.2151,7.222,7.2272,7.235,7.2396,7.2468,7.25,7.2544,7.2552,7.2578,7.2668,7.2714,7.2784,7.2809,7.2816,7.2917,7.2905,7.2888,7.2852,7.2932,7.297,7.2985,7.2793,7.2792,7.2792,7.2791,0,0,7.2253,7.2345,7.2364,7.2401,7.247,7.2523,7.2596,7.2667,7.2706,7.2759,7.2821,7.2912,7.2898,7.2938,7.2949,7.2998,7.3085,7.2976,7.2977,7.2997,7.3203,7.3217,7.3234,7.3082,7.3085,7.3087,7.3199,0,7.2353,7.2485,7.2508,7.2623,7.2688,7.2691,7.2755,7.2804,7.2831,7.289,7.2918,7.2984,7.2959,7.2984,7.3032,7.3064,7.3127,7.3056,7.3141,7.3144,7.3129,7.3253,7.3267,7.3371,7.3213,7.3216,7.3218,0,7.2487,7.2548,7.2671,7.2735,7.2763,7.282,7.2889,7.2944,7.3,7.3017,7.3063,7.3069,7.3145,7.3104,7.321,7.3161,7.3197,7.3218,7.3223,7.3233,7.3187,7.3269,7.3404,7.342,7.3241,7.3239,7.3237,0,7.2553,7.2665,7.2754,7.2785,7.2861,7.2902,7.2935,7.2989,7.3031,7.309,7.3118,7.3184,7.322,7.3271,7.3295,7.3263,7.3401,7.3361,7.3417,7.3417,7.3447,7.3445,7.3592,7.3466,7.3466,7.3466,7.3465,0,7.2664,7.2739,7.2786,7.2841,7.2926,7.295,7.3034,7.3065,7.3114,7.3175,7.3179,7.3236,7.3264,7.3325,7.3344,7.343,7.3445,7.3461,7.3466,7.3463,7.3461,7.3488,7.3482,7.347,7.3469,7.3468,7.3467,0,7.2753,7.2786,7.2884,7.2949,7.2967,7.3028,7.3083,7.3136,7.3163,7.3241,7.326,7.3302,7.3375,7.3404,7.3491,7.3504,7.3605,7.3602,7.3587,7.3589,7.3644,7.364,7.3815,7.3841,7.3695,7.3697,7.3698,0,7.2822,7.2881,7.2954,7.2996,7.3032,7.3099,7.3144,7.317,7.3215,7.3286,7.3331,7.3404,7.3464,7.3579,7.3617,7.3685,7.3686,7.3743,7.3696,7.3692,7.369,7.3687,7.3695,7.3752,7.3753,7.3754,7.3755,0,7.2943,7.2958,7.3022,7.3094,7.3147,7.3204,7.3259,7.3293,7.3328,7.3379,7.3455,7.3502,7.3593,7.3666,7.3736,7.3769,7.3769,7.377,7.3787,7.3785,7.3775,7.3785,7.3613,7.3766,7.3765,7.3764,7.3763,7.3763,7.3026,7.308,7.3141,7.3214,7.3259,7.3311,7.3366,7.3401,7.3465,7.3544,7.3554,7.3636,7.3692,7.3787,7.3824,7.3887,7.3873,7.3896,7.3903,7.3909,7.3915,7.3763,7.39,7.3899,7.3899,7.3899,7.3899,0,7.315,7.319,7.3257,7.3336,7.3393,7.3389,7.3451,7.3499,7.3572,7.3625,7.3685,7.3773,7.3845,7.3889,7.3961,7.4004,7.4006,7.4022,7.402,7.4029,7.3922,7.3902,7.402,7.402,7.402,7.402,7.402,7.402,7.3222,7.3314,7.3336,7.3451,7.3489,7.3572,7.3608,7.3656,7.37,7.3799,7.3859,7.3888,7.3939,7.4015,7.4081,7.4092,7.4119,7.4137,7.4148,7.4048,7.4036,7.4024,7.4005,7.4142,7.4142,7.4249,7.425,7.4251]}]]